Location: Newark
(44.6028°N, 124.0883°W)
Time: 22:01:36
(UTC+00:00)

Vanguard 1 - Pass Details

Date: 23 October 2019
Orbit: 652 x 3831 km, 34.2° (Epoch: 16 November)

Event Time Altitude Azimuth Distance (km) Brightness Sun altitude
Rises 01:33:39 0° 214° (SW) 3,453 13.7 -3.1°
Reaches altitude 10° 01:36:11 10° 200° (SSW) 2,768 12.9 -3.6°
Maximum altitude 01:41:38 26° 146° (SE) 2,384 11.8 -4.5°
Drops below altitude 10° 01:49:58 10° 96° (E) 4,390 12.8 -6.0°
Enters shadow 01:52:00 - 91° (E) 5,002 13.0 -6.3°
Sets 01:55:18 0° 86° (E) 5,997 - -6.9°
